Richlands, VA

12:44 PM EST on January 19, 2018 (GMT -0500)
Tazewell County

Weather History for KJFZ - November, 2013

Change the Weather History Date:

Monday, November 25, 2013

  Actual Average (KBLF) Record (KBLF)
Temperature  
Mean Temperature 30 °F -  
Max Temperature 41 °F 50 °F 69 °F (2006)
Min Temperature 19 °F 33 °F 7 °F (1970)
Degree Days  
Heating Degree Days 35    
Moisture  
Dew Point 13 °F    
Average Humidity 50    
Maximum Humidity 85    
Minimum Humidity 26    
Precipitation  
Precipitation 0.00 in - - ()
Sea Level Pressure  
Sea Level Pressure 30.30 in    
Wind  
Wind Speed 2 mph (East)    
Max Wind Speed 7 mph    
Max Gust Speed -    
Visibility 10 miles    
Events Snow    
Averages and records for this station are not official NWS values.
T = Trace of Precipitation, MM = Missing Value Source: NWS Daily Summary

Daily Weather History Graph

Daily Weather History Graph

Search for Another Location

Airport or City:

Trip Planner

Search our weather history database for the weather conditions in past years. The results will help you decide how hot, cold, wet, or windy it might be!

Date:

Astronomy

Nov. 25, 2013 Rise Set
Actual Time 7:16 AM EST 5:11 PM EST
Civil Twilight 6:48 AM EST 5:40 PM EST
Nautical Twilight 6:16 AM EST 6:12 PM EST
Astronomical Twilight 5:45 AM EST 6:43 PM EST
Moon No Moon Rise 12:38 PM EST (11/25)
Length of Visible Light 10h 52m
Length of Day
9h 55m
Waning Gibbous, 51% of the Moon is Illuminated
Nov 25
Waning Gibbous
Nov 25
Last Quarter
Dec 2
New
Dec 9
First Quarter
Dec 17
Full

Hourly Weather History & Observations

Time (EST) Temp. Windchill Dew Point Humidity Pressure Visibility Wind Dir Wind Speed Gust Speed Precip Events Conditions
12:15 AM 21.0 °F - 3.9 °F 48% 30.40 in 10.0 mi Calm Calm - N/A   Clear
12:35 AM 19.2 °F - 7.9 °F 61% 30.40 in 10.0 mi Calm Calm - N/A   Clear
12:55 AM 19.0 °F 12.3 °F 9.0 °F 65% 30.40 in 10.0 mi NE 4.6 mph - N/A   Clear
1:15 AM 19.4 °F 14.3 °F 8.1 °F 61% 30.38 in 10.0 mi East 3.5 mph - N/A   Clear
1:35 AM 19.8 °F 13.2 °F 6.3 °F 56% 30.37 in 10.0 mi East 4.6 mph - N/A   Clear
1:55 AM 19.4 °F 11.5 °F 6.3 °F 57% 30.37 in 10.0 mi NE 5.8 mph - N/A   Clear
2:15 AM 19.2 °F 11.3 °F 7.3 °F 60% 30.38 in 10.0 mi ENE 5.8 mph - N/A   Clear
2:35 AM 19.4 °F 10.4 °F 6.3 °F 57% 30.38 in 10.0 mi ENE 6.9 mph - N/A   Clear
2:55 AM 19.0 °F 11.1 °F 6.4 °F 58% 30.38 in 10.0 mi ENE 5.8 mph - N/A   Clear
3:15 AM 19.4 °F 14.3 °F 5.7 °F 55% 30.37 in 10.0 mi East 3.5 mph - N/A   Clear
3:35 AM 19.2 °F 11.3 °F 6.4 °F 58% 30.35 in 10.0 mi ENE 5.8 mph - N/A   Clear
3:55 AM 19.2 °F 12.5 °F 6.4 °F 58% 30.34 in 10.0 mi ENE 4.6 mph - N/A   Clear
4:15 AM 19.2 °F - 6.1 °F 57% 30.34 in 10.0 mi Calm Calm - N/A   Clear
4:35 AM 19.0 °F 10.0 °F 6.6 °F 59% 30.33 in 10.0 mi NE 6.9 mph - N/A   Clear
4:55 AM 19.2 °F 10.2 °F 7.0 °F 59% 30.32 in 10.0 mi NE 6.9 mph - N/A   Clear
5:15 AM 19.2 °F - 8.6 °F 63% 30.33 in 10.0 mi Calm Calm - N/A   Clear
5:35 AM 20.1 °F - 7.2 °F 57% 30.33 in 10.0 mi Calm Calm - N/A   Clear
5:55 AM 20.3 °F - 9.7 °F 64% 30.33 in 10.0 mi Calm Calm - N/A   Clear
6:15 AM 20.8 °F - 10.2 °F 64% 30.33 in 10.0 mi Calm Calm - N/A   Clear
6:35 AM 21.2 °F - 9.0 °F 59% 30.33 in 10.0 mi Calm Calm - N/A   Clear
6:55 AM 21.2 °F - 11.3 °F 66% 30.33 in 10.0 mi Calm Calm - N/A   Clear
7:15 AM 21.0 °F - 10.6 °F 64% 30.33 in 10.0 mi Calm Calm - N/A   Clear
7:35 AM 21.9 °F - 10.8 °F 62% 30.34 in 10.0 mi Calm Calm - N/A   Clear
7:55 AM 22.6 °F - 10.8 °F 60% 30.34 in 10.0 mi Calm Calm - N/A   Clear
8:15 AM 22.8 °F - 14.0 °F 69% 30.34 in 10.0 mi Calm Calm - N/A   Scattered Clouds
8:35 AM 23.7 °F - 12.6 °F 62% 30.35 in 10.0 mi Calm Calm - N/A   Mostly Cloudy
8:55 AM 24.3 °F 19.9 °F 12.2 °F 60% 30.35 in 10.0 mi SSE 3.5 mph - N/A   Scattered Clouds
9:15 AM 25.0 °F - 11.8 °F 57% 30.34 in 10.0 mi Calm Calm - N/A   Clear
9:35 AM 25.7 °F 21.5 °F 14.0 °F 61% 30.35 in 10.0 mi NW 3.5 mph - N/A   Scattered Clouds
9:55 AM 25.7 °F - 15.4 °F 65% 30.35 in 10.0 mi Calm Calm - N/A   Scattered Clouds
10:15 AM 30.2 °F 26.7 °F 15.3 °F 54% 30.35 in 10.0 mi SSE 3.5 mph - N/A   Mostly Cloudy
10:35 AM 31.1 °F - 13.1 °F 47% 30.35 in 10.0 mi Calm Calm - N/A   Scattered Clouds
10:55 AM 30.7 °F - 16.7 °F 56% 30.34 in 10.0 mi Calm Calm - N/A   Mostly Cloudy
11:15 AM 31.8 °F - 17.6 °F 56% 30.34 in 10.0 mi Calm Calm - N/A   Scattered Clouds
11:35 AM 35.6 °F - 15.1 °F 43% 30.33 in 10.0 mi Calm Calm - N/A   Scattered Clouds
11:55 AM 38.5 °F - 14.0 °F 37% 30.31 in 10.0 mi Calm Calm - N/A   Scattered Clouds
12:15 PM 40.6 °F - 9.5 °F 28% 30.30 in 10.0 mi Calm Calm - N/A   Mostly Cloudy
12:35 PM 41.2 °F - 8.2 °F 26% 30.29 in 10.0 mi Calm Calm - N/A   Scattered Clouds
12:55 PM 39.4 °F 37.2 °F 14.2 °F 36% 30.29 in 10.0 mi NW 3.5 mph - N/A   Clear
1:15 PM 38.7 °F 35.2 °F 16.0 °F 40% 30.28 in 10.0 mi NNW 4.6 mph - N/A   Clear
1:35 PM 39.4 °F 36.1 °F 13.6 °F 35% 30.28 in 10.0 mi WNW 4.6 mph - N/A   Mostly Cloudy
1:55 PM 39.9 °F 36.7 °F 11.1 °F 31% 30.28 in 10.0 mi West 4.6 mph - N/A   Overcast
2:15 PM 40.3 °F - 9.9 °F 29% 30.26 in 10.0 mi Calm Calm - N/A   Overcast
2:35 PM 41.0 °F 39.0 °F 12.4 °F 31% 30.26 in 10.0 mi SSW 3.5 mph - N/A   Overcast
2:55 PM 40.8 °F 38.8 °F 11.1 °F 30% 30.27 in 10.0 mi SSW 3.5 mph - N/A   Overcast
3:15 PM 41.0 °F - 12.2 °F 31% 30.26 in 10.0 mi Calm Calm - N/A   Mostly Cloudy
3:35 PM 40.5 °F 38.4 °F 14.0 °F 34% 30.25 in 10.0 mi SE 3.5 mph - N/A   Scattered Clouds
3:55 PM 40.5 °F - 12.9 °F 33% 30.26 in 10.0 mi Calm Calm - N/A   Scattered Clouds
4:15 PM 40.3 °F 36.3 °F 16.3 °F 38% 30.26 in 10.0 mi West 5.8 mph - N/A   Overcast
4:35 PM 39.7 °F - 14.9 °F 36% 30.26 in 10.0 mi Calm Calm - N/A   Overcast
4:55 PM 39.4 °F - 14.5 °F 36% 30.26 in 10.0 mi Calm Calm - N/A   Overcast
5:15 PM 39.0 °F - 15.1 °F 38% 30.24 in 10.0 mi Calm Calm - N/A   Mostly Cloudy
5:35 PM 39.4 °F - 12.7 °F 34% 30.25 in 10.0 mi Calm Calm - N/A   Mostly Cloudy
5:55 PM 39.4 °F - 9.7 °F 29% 30.25 in 10.0 mi Calm Calm - N/A   Overcast
6:15 PM 39.2 °F - 9.7 °F 30% 30.26 in 10.0 mi Calm Calm - N/A   Overcast
6:35 PM 39.2 °F - 12.2 °F 33% 30.26 in 10.0 mi Calm Calm - N/A   Overcast
6:55 PM 39.0 °F 36.8 °F 10.4 °F 31% 30.27 in 10.0 mi SW 3.5 mph - N/A   Overcast
7:15 PM 38.8 °F - 11.7 °F 33% 30.26 in 10.0 mi Calm Calm - N/A   Overcast
7:35 PM 38.5 °F 34.1 °F 12.2 °F 34% 30.24 in 10.0 mi SE 5.8 mph - N/A   Overcast
7:55 PM 38.7 °F 36.3 °F 12.2 °F 34% 30.24 in 10.0 mi SSW 3.5 mph - N/A   Overcast
8:15 PM 38.3 °F - 14.2 °F 37% 30.24 in 10.0 mi Calm Calm - N/A   Overcast
8:35 PM 38.3 °F - 13.6 °F 37% 30.25 in 10.0 mi Calm Calm - N/A   Overcast
8:55 PM 38.5 °F - 14.0 °F 37% 30.24 in 10.0 mi Calm Calm - N/A   Overcast
9:15 PM 36.7 °F 32.0 °F 16.0 °F 43% 30.24 in 10.0 mi NW 5.8 mph - N/A   Overcast
9:35 PM 36.9 °F 32.2 °F 16.2 °F 43% 30.25 in 10.0 mi WNW 5.8 mph - N/A   Overcast
9:55 PM 37.6 °F 34.0 °F 13.6 °F 38% 30.27 in 10.0 mi West 4.6 mph - N/A   Overcast
10:15 PM 35.2 °F 32.4 °F 22.8 °F 61% 30.26 in 4.0 mi West 3.5 mph - N/A Snow Light Snow
10:35 PM 33.3 °F - 27.0 °F 78% 30.24 in 4.0 mi Calm Calm - N/A Snow Light Snow
10:55 PM 33.4 °F 29.1 °F 27.5 °F 79% 30.24 in 7.0 mi SE 4.6 mph - N/A Snow Light Snow
11:15 PM 33.3 °F 27.9 °F 28.4 °F 82% 30.21 in 7.0 mi SE 5.8 mph - N/A Snow Light Snow
11:35 PM 33.8 °F 30.8 °F 28.6 °F 81% 30.19 in 10.0 mi ESE 3.5 mph - N/A   Overcast
11:55 PM 35.1 °F 29.3 °F 30.9 °F 85% 30.17 in 10.0 mi ESE 6.9 mph - N/A   Overcast